[Iaude] MPEC A98: 2024 AF2 [a=2.93,e=0.63,i=16.0,H=19.6]

mpec at marsden.cfa.harvard.edu mpec at marsden.cfa.harvard.edu
Tue Jan 9 13:37:52 EST 2024


M.P.E.C. 2024-A98                               Issued 2024 January 9, 18:36 UT

     The Minor Planet Electronic Circulars contain information on unusual
         minor planets, routine data on comets and natural satellites,
         and occasional editorial announcements.  They are published
    on behalf of Division F of the International Astronomical Union by the
          Minor Planet Center, Smithsonian Astrophysical Observatory,
                          Cambridge, MA 02138, U.S.A.
			  
             Prepared using the Tamkin Foundation Computer Network

                              MPC at CFA.HARVARD.EDU
            URL https://www.minorplanetcenter.net/    ISSN 1523-6714

                                    2024 AF2                                    


Observations:
     K24A02F* C2024 01 06.23754301 18 55.810+13 33 01.20         20.96wXEA098F51
     K24A02F  C2024 01 06.25178701 18 59.161+13 33 52.47         20.83wXEA098F51
     K24A02F  C2024 01 06.27506401 19 04.645+13 35 16.21         21.15wXEA098F51
     K24A02F  C2024 01 08.07771001 26 22.13 +15 22 05.9                WEA098X09
     K24A02F  C2024 01 08.08818101 26 24.58 +15 22 43.2                WEA098X09
     K24A02F  C2024 01 08.09864801 26 27.18 +15 23 18.4                WEA098X09
     K24A02F KB2024 01 08.78640701 29 15.30 +16 02 44.4                XEA098958
     K24A02F KB2024 01 08.79717701 29 17.94 +16 03 19.9          20.3 GXEA098958
     K24A02F KB2024 01 08.80792901 29 20.43 +16 03 57.0          20.7 GXEA098958
     K24A02F KC2024 01 09.75467201 33 11.87 +16 57 41.9          19.8 GVEA098L01
     K24A02F KC2024 01 09.75635401 33 12.29 +16 57 47.5          20.0 GVEA098L01
     K24A02F KC2024 01 09.75972001 33 13.13 +16 57 59.9          19.9 GVEA098L01
     K24A02F KC2024 01 09.76140401 33 13.50 +16 58 05.4          20.0 GVEA098L01

Observer details:
958 Observatoire de Dax.  Observer P. Dupouy.  0.50-m f/4.5 Reflector + CMO.
F51 Pan-STARRS 1, Haleakala.  Observers J. Herman, T. Lowe, P. Minguez, A.
    Schultz, I. Smith.  Measurers K. Chambers, T. de Boer, J. Fairlamb, H.
    Gao, M. Huber, C.-C. Lin, E. Magnier, Y. Ramanjooloo, R. Wainscoat, R.
    Weryk.  1.8-m Ritchey-Chretien + CCD.
L01 Visnjan Observatory, Tican.  Observers K. Korlevic, L. Poropat.  Measurer
    K. Korlevic.  1.0-m f/2.9 reflector + CCD.
X09 Deep Random Survey, Rio Hurtado.  Observers A. Schnabel, D. Ruhela.
    Measurer S. Deen.  0.43-m reflector + CMOS.

Orbital elements:
2024 AF2                                                 Earth MOID = 0.1352 AU
Epoch 2023 Sept. 13.0 TT = JDT 2460200.5                MPC                     
M 344.05315              (2000.0)            P               Q                  
n   0.19625808     Peri.  332.26679     +0.70401832     -0.66011085             
a   2.9325878      Node    71.58137     +0.69193310     +0.55449237             
e   0.6271300      Incl.   16.02647     +0.15995873     +0.50674636             
P   5.02           H   19.63          G   0.15           U   9                  
Residuals in seconds of arc
240106 F51  0.1+  0.0     240108 X09  1.4+  0.0     240109 L01  0.0   0.6-
240106 F51  0.0   0.0     240108 958  0.8-  1.3+    240109 L01  0.5+  0.5+
240106 F51  0.1-  0.0     240108 958  0.2+  0.2-    240109 L01  0.0   0.4+
240108 X09  0.8+  0.2+    240108 958  0.9-  0.1-
240108 X09  0.0   1.1+    240109 L01  0.2-  0.5-

Ephemeris:
2024 AF2                 a,e,i = 2.93, 0.63, 16                  q = 1.0935
Date    TT    R. A. (2000) Decl.     Delta      r    Elong.  Phase     V
2023 12 10    23 34 42.6 -16 33 51   0.4790  1.0970    90.2    63.9    20.5
...
2023 12 25    00 30 38.5 +00 15 58   0.4822  1.1293    94.6    60.3    20.5
...
2024 01 02    01 01 57.8 +09 09 24   0.5047  1.1591    97.1    57.3    20.5
...
2024 01 08    01 26 03.6 +15 17 21   0.5317  1.1864    98.7    55.0    20.6
2024 01 09    01 30 07.4 +16 15 01   0.5371  1.1914    98.9    54.6    20.7
2024 01 10    01 34 11.9 +17 11 33   0.5426  1.1964    99.2    54.2    20.7
...
2024 01 16    01 58 52.6 +22 25 10   0.5808  1.2287   100.3    52.0    20.8
...
2024 01 24    02 32 11.3 +28 11 55   0.6433  1.2766   101.3    49.1    21.0
...
2024 02 08    03 34 26.6 +35 33 33   0.7914  1.3781   101.1    44.6    21.5

A. U. Tomatic                (C) Copyright 2024 MPC           M.P.E.C. 2024-A98





More information about the Iaude mailing list